Regional Weather Roundup
Issued by NWS

Home | Current Version | Previous Version | Text Only | Print | Product List | Glossary On
Versions: 1 2 3 4 5 6 7 8 9 10 11 12 13 14 15 16 17 18 19 20 21 22 23 24 25 26 27 28 29 30 31 32 33 34 35 36 37 38 39 40 41 42 43 44 45 46 47 48 49 50
000
ASUS45 KCYS 052010
RWRWY

WYOMING REGIONAL WEATHER ROUNDUP
NATIONAL WEATHER SERVICE CHEYENNE WY
200 PM MDT THU MAY 05 2016

NOTE:  "FAIR" INDICATES FEW OR NO CLOUDS BELOW 12,000 FEET
WITH NO SIGNIFICANT WEATHER AND/OR OBSTRUCTIONS TO VISIBILITY.

WYZ001-052100-
YELLOWSTONE NATIONAL PARK

CITY           SKY/WX    TMP DP  RH WIND       PRES   REMARKS
LK YELLOWSTONE   N/A     59  28  30 E5        30.17F
W YELLOWSTONE  NOT AVBL

$$
WYZ002>013-054>058-071-098>099-052100-
NORTHERN WYOMING

CITY           SKY/WX    TMP DP  RH WIND       PRES   REMARKS
JACKSON        SUNNY     70  30  23 SW5       30.08F
CODY           FAIR      77  30  18 CALM      29.98F
GREYBULL       FAIR      81  28  14 VRB3      29.93F
WORLAND        FAIR      80  39  23 NE3       29.96F
SHERIDAN       FAIR      82  40  22 E7        29.92F
BUFFALO        FAIR      79  35  20 VRB3      30.00S
GILLETTE       FAIR      77  48  35 VRB7      29.95F
HULETT         FAIR      82  30  15 SW12      29.95F
NEWCASTLE      FAIR      81  27  13 SE3       29.96F

$$
WYZ014>020-022>026-101>103-052100-
CENTRAL WYOMING

CITY           SKY/WX    TMP DP  RH WIND       PRES   REMARKS
BIG PINEY      FAIR      73  27  18 SW10G21   30.12F
PINEDALE       FAIR      70  27  19 S10G16    30.13F
DUBOIS         MOCLDY    66  23  19 E8        30.11F
LANDER         FAIR      75  42  30 E6        30.02F
RIVERTON       FAIR      73  33  23 E5        30.04F
CASPER         FAIR      78  30  17 W12G18    30.03F
DOUGLAS        FAIR      80  32  17 N10       30.02F

$$
WYZ021-027>030-104>119-052100-
SOUTHERN WYOMING

CITY           SKY/WX    TMP DP  RH WIND       PRES   REMARKS
EVANSTON       FAIR      73  22  14 S13G25    30.08F
KEMMERER         N/A     72  19  14 SE6       30.12F
FORT BRIDGER   CLEAR     73  21  14 S9G16     30.12F
ROCK SPRINGS   PTSUNNY   70  24  17 W9        30.11F
DIXON          FAIR      74  28  18 W5        30.15F
RAWLINS        FAIR      71  22  15 W7        30.14F
SARATOGA       FAIR      72  23  16 W12G18    30.17S
LARAMIE        FAIR      70  30  22 N6        30.16F
CHEYENNE       FAIR      75  24  15 VRB6G18   30.11F
TORRINGTON     FAIR      81  30  15 SW8       29.97F
PINE BLUFFS    FAIR      77  32  19 SW8       30.07S

$$



USA.gov is the U.S. government's official web portal to all federal, state and local government web resources and services.